Powrót do katalogu

FENGYUN 1C DEB

AktywnyPO
NORAD 35174·DEBRIS·🇨🇳 China

Wystrzelony May 10, 1999 z Taiyuan Satellite Launch Center

Loading…

Następne Przeloty (najbliższe 24 godziny)

TLE

ŚwieżeSource: Space-Track

Epoka: Sep 14, 2026, 07:25 UTC

1 35174U 99025DNE 26257.30962041  .00031670  00000-0  12879-2 0  9998
2 35174  98.9595 283.0090 0101705 355.6191   4.4138 15.19771065943236

Śledź FENGYUN 1C DEB w czasie rzeczywistym z AllMySat

Download on the App Store